Hourly Weather Svetlahorsk

Today, 13 August, Thursday

Time Temperature Precipitation Wind Pressure Humidity
00:00 +12°C° 0 mm 2 mps 752 mmHg 85%
01:00 +12°C° 0 mm 2 mps 752 mmHg 84%
02:00 +13°C° 0 mm 1 mps 752 mmHg 82%
03:00 +13°C° 0 mm 1 mps 752 mmHg 83%
04:00 +13°C° 0 mm 1 mps 752 mmHg 83%
05:00 +13°C° 0 mm 1 mps 752 mmHg 84%
06:00 +14°C° 0 mm 2 mps 752 mmHg 81%
07:00 +14°C° 0 mm 2 mps 752 mmHg 79%
08:00 +15°C° 0 mm 2 mps 752 mmHg 75%
09:00 +16°C° 0 mm 2 mps 752 mmHg 70%
10:00 +17°C° 0 mm 3 mps 752 mmHg 65%
11:00 +18°C° 0 mm 3 mps 751 mmHg 61%
12:00 +18°C° 0 mm 3 mps 751 mmHg 60%
13:00 +18°C° 0 mm 3 mps 751 mmHg 60%
14:00 +18°C° 0 mm 2 mps 751 mmHg 59%
15:00 +18°C° 0 mm 2 mps 751 mmHg 61%
16:00 +17°C° 0 mm 2 mps 751 mmHg 63%
17:00 +17°C° 0 mm 2 mps 751 mmHg 65%
18:00 +15°C° 0 mm 2 mps 751 mmHg 69%
19:00 +14°C° 0 mm 2 mps 751 mmHg 73%
20:00 +13°C° 0 mm 2 mps 751 mmHg 77%
21:00 +12°C° 0 mm 2 mps 751 mmHg 77%
22:00 +10°C° 0 mm 2 mps 751 mmHg 78%
23:00 +11°C° 0 mm 1 mps 751 mmHg 79%

Tomorrow, 14 August, Friday

Time Temperature Precipitation Wind Pressure Humidity
00:00 +10°C° 0 mm 2 mps 751 mmHg 81%
01:00 +9°C° 0 mm 2 mps 752 mmHg 83%
02:00 +9°C° 0 mm 2 mps 752 mmHg 86%
03:00 +9°C° 0 mm 2 mps 752 mmHg 87%
04:00 +8°C° 0 mm 2 mps 752 mmHg 89%
05:00 +8°C° 0 mm 2 mps 752 mmHg 91%
06:00 +10°C° 0 mm 2 mps 752 mmHg 83%
07:00 +13°C° 0 mm 2 mps 752 mmHg 76%
08:00 +15°C° 0 mm 2 mps 752 mmHg 69%
09:00 +16°C° 0 mm 2 mps 752 mmHg 63%
10:00 +17°C° 0 mm 2 mps 752 mmHg 58%
11:00 +19°C° 0 mm 2 mps 752 mmHg 53%
12:00 +19°C° 0 mm 2 mps 752 mmHg 53%
13:00 +19°C° 0 mm 2 mps 752 mmHg 52%
14:00 +20°C° 0 mm 2 mps 752 mmHg 52%
15:00 +20°C° 0 mm 2 mps 752 mmHg 54%
16:00 +20°C° 0 mm 2 mps 752 mmHg 56%
17:00 +20°C° 0 mm 1 mps 751 mmHg 57%
18:00 +19°C° 0 mm 1 mps 752 mmHg 64%
19:00 +16°C° 0 mm 1 mps 752 mmHg 71%
20:00 +14°C° 0 mm 1 mps 752 mmHg 77%
21:00 +13°C° 0 mm 1 mps 752 mmHg 78%
22:00 +13°C° 0 mm 1 mps 752 mmHg 79%
23:00 +11°C° 0 mm 0 mps 753 mmHg 80%

Day after tomorrow, 15 August, Saturday

Time Temperature Precipitation Wind Pressure Humidity
00:00 +11°C° 0 mm 0 mps 753 mmHg 81%
01:00 +11°C° 0 mm 0 mps 753 mmHg 82%
02:00 +10°C° 0 mm 0 mps 753 mmHg 83%
03:00 +10°C° 0 mm 0 mps 753 mmHg 84%
04:00 +10°C° 0 mm 0 mps 753 mmHg 85%
05:00 +9°C° 0 mm 0 mps 753 mmHg 85%
06:00 +12°C° 0 mm 0 mps 753 mmHg 79%
07:00 +14°C° 0 mm 0 mps 753 mmHg 73%
08:00 +16°C° 0 mm 0 mps 753 mmHg 67%
09:00 +17°C° 0 mm 0 mps 753 mmHg 62%
10:00 +19°C° 0 mm 0 mps 753 mmHg 57%
11:00 +21°C° 0 mm 0 mps 753 mmHg 53%
12:00 +21°C° 0 mm 0 mps 753 mmHg 51%
13:00 +21°C° 0 mm 0 mps 753 mmHg 49%
14:00 +22°C° 0 mm 0 mps 752 mmHg 47%
15:00 +22°C° 0 mm 0 mps 752 mmHg 48%
16:00 +21°C° 0 mm 0 mps 752 mmHg 50%
17:00 +21°C° 0 mm 0 mps 752 mmHg 51%
18:00 +19°C° 0 mm 0 mps 752 mmHg 57%
19:00 +19°C° 0 mm 1 mps 752 mmHg 64%
20:00 +16°C° 0 mm 1 mps 752 mmHg 70%
21:00 +15°C° 0 mm 1 mps 752 mmHg 70%
22:00 +15°C° 0 mm 1 mps 752 mmHg 71%
23:00 +15°C° 0 mm 1 mps 752 mmHg 71%

16 August, Sunday

Time Temperature Precipitation Wind Pressure Humidity
00:00 +14°C° 0 mm 1 mps 752 mmHg 73%
01:00 +14°C° 0 mm 1 mps 752 mmHg 74%
02:00 +14°C° 0 mm 1 mps 752 mmHg 76%
03:00 +13°C° 0 mm 1 mps 752 mmHg 78%
04:00 +13°C° 0 mm 1 mps 752 mmHg 80%
05:00 +13°C° 0 mm 1 mps 751 mmHg 82%
06:00 +15°C° 0 mm 2 mps 752 mmHg 78%
07:00 +17°C° 0 mm 2 mps 752 mmHg 74%
08:00 +19°C° 0 mm 2 mps 752 mmHg 69%
09:00 +20°C° 0 mm 2 mps 752 mmHg 65%
10:00 +23°C° 0 mm 2 mps 752 mmHg 60%
11:00 +24°C° 0 mm 2 mps 752 mmHg 56%
12:00 +25°C° 0 mm 2 mps 752 mmHg 54%
13:00 +25°C° 0 mm 2 mps 752 mmHg 52%
14:00 +26°C° 0 mm 2 mps 752 mmHg 50%
15:00 +26°C° 0 mm 2 mps 751 mmHg 52%
16:00 +25°C° 0 mm 1 mps 751 mmHg 53%
17:00 +25°C° 0 mm 1 mps 751 mmHg 55%
18:00 +23°C° 0 mm 1 mps 751 mmHg 60%
19:00 +21°C° 0 mm 1 mps 751 mmHg 66%
20:00 +19°C° 0 mm 1 mps 751 mmHg 72%
21:00 +18°C° 0 mm 1 mps 751 mmHg 73%
22:00 +18°C° 0 mm 1 mps 751 mmHg 74%
23:00 +16°C° 0 mm 1 mps 751 mmHg 76%

17 August, Monday

Time Temperature Precipitation Wind Pressure Humidity
00:00 +16°C° 0 mm 1 mps 751 mmHg 77%
01:00 +15°C° 0 mm 1 mps 751 mmHg 78%
02:00 +15°C° 0 mm 1 mps 751 mmHg 78%
03:00 +14°C° 0 mm 1 mps 750 mmHg 79%
04:00 +14°C° 0 mm 1 mps 750 mmHg 79%
05:00 +14°C° 0 mm 1 mps 750 mmHg 79%
06:00 +16°C° 0 mm 1 mps 750 mmHg 73%
07:00 +18°C° 0 mm 1 mps 750 mmHg 68%
08:00 +20°C° 0 mm 1 mps 750 mmHg 62%
09:00 +21°C° 0 mm 2 mps 750 mmHg 57%
10:00 +24°C° 0 mm 2 mps 750 mmHg 52%
11:00 +26°C° 0 mm 2 mps 750 mmHg 47%
12:00 +26°C° 0 mm 2 mps 749 mmHg 46%
13:00 +27°C° 0 mm 2 mps 749 mmHg 44%
14:00 +27°C° 0 mm 2 mps 748 mmHg 42%
15:00 +27°C° 0 mm 2 mps 748 mmHg 47%
16:00 +27°C° 0 mm 1 mps 748 mmHg 51%
17:00 +27°C° 0 mm 1 mps 747 mmHg 56%
18:00 +25°C° 0.1 mm 2 mps 747 mmHg 62%
19:00 +22°C° 0.1 mm 3 mps 747 mmHg 69%
20:00 +20°C° 0.1 mm 4 mps 746 mmHg 76%
21:00 +19°C° 0.2 mm 3 mps 746 mmHg 80%
22:00 +19°C° 0.2 mm 3 mps 746 mmHg 84%
23:00 +18°C° 0.2 mm 3 mps 746 mmHg 88%

18 August, Tuesday

Time Temperature Precipitation Wind Pressure Humidity
00:00 +18°C° 0.3 mm 2 mps 745 mmHg 89%
01:00 +18°C° 0.3 mm 2 mps 745 mmHg 89%
02:00 +18°C° 0.3 mm 2 mps 745 mmHg 90%
03:00 +17°C° 0.3 mm 2 mps 744 mmHg 92%
04:00 +17°C° 0.3 mm 2 mps 744 mmHg 93%
05:00 +16°C° 0.3 mm 1 mps 744 mmHg 95%
06:00 +18°C° 0.2 mm 1 mps 744 mmHg 92%
07:00 +19°C° 0.2 mm 1 mps 744 mmHg 89%
08:00 +20°C° 0.2 mm 1 mps 744 mmHg 87%
09:00 +19°C° 0.2 mm 2 mps 744 mmHg 84%
10:00 +20°C° 0.2 mm 2 mps 744 mmHg 82%
11:00 +21°C° 0.2 mm 3 mps 744 mmHg 80%
12:00 +21°C° 0 mm 3 mps 744 mmHg 77%
13:00 +22°C° 0 mm 3 mps 744 mmHg 73%
14:00 +23°C° 0 mm 2 mps 744 mmHg 70%
15:00 +24°C° 0.1 mm 2 mps 744 mmHg 69%
16:00 +24°C° 0.1 mm 2 mps 744 mmHg 68%
17:00 +24°C° 0.1 mm 2 mps 744 mmHg 68%
18:00 +22°C° 0 mm 1 mps 744 mmHg 74%
19:00 +21°C° 0 mm 1 mps 744 mmHg 81%
20:00 +17°C° 0 mm 0 mps 744 mmHg 87%
21:00 +19°C° 0 mm 1 mps 744 mmHg 89%
22:00 +18°C° 0 mm 1 mps 744 mmHg 91%
23:00 +17°C° 0 mm 2 mps 744 mmHg 93%
Show more